Погода в Череповеце

Хотите узнать прогноз погоды в Череповеце? Тогда Вам сюда: Погода в Череповеце

Поиск расширенной информации на нашем сайте:

Полезная информация:

Новости сайта



02.01.2020
Опубликован Долгосрочный прогноз погоды по городам России и ближнего зарубежья на январь 2020 года.
Карты: Прогноз на январь и февраль 2020 года, Сравнение прогнозируемой аномалии приземной температуры воздуха на январь 2020 года по разным моделям.




Погода в Череповеце - сегодня

Время (UTC), дата Ветер
(°,м/с) 
Видим.   Явления Облачность Т
(°С)
Тd
(°С)
f(%) Тe
(°С)
Pmin
(гПа)
dP
(гПа)
Po
(мм)
O2
(г/м3)
Тmin Tmax R s Состояние
почвы
15 27.03.20 230 (ЮЗ) 10 км    3/0 верхняя 
[Ci fib]
+11.3 -4 34 +11  1028.9  -1.5  761  295    +12.5       
18 27.03.20 тихо ()   10 км    4/0 средняя, верхняя 
[Ac trans|Ci fib]
+0.7 -4.6 68 +1  1028.8  -0.7  760  306           
21 27.03.20 тихо ()   10 км    4/0 верхняя 
[Ci fib]
-3.1 -5.1 86 -3  1028  -1  760  310           
00 28.03.20 тихо ()   10 км    4/0 верхняя 
[Ci fib]
-3.2 -4.9 88 -3  1026.7  -1.2  759  310           
03 28.03.20 тихо ()   10 км    8/0 средняя, верхняя 
[Ac trans|Ci fib]
-3.7 -4.5 94 -4  1024.9  -1.8  757  310  -3.7        замёрзшая 
06 28.03.20 тихо ()   10 км    8/0 верхняя 
[Cc]
+3.5 -3.9 58 +4  1022.6  -2  756  301  -4         
09 28.03.20 200 (Ю) 10 км    4/0 верхняя 
[Ci fib]
+12.2 -7.8 24 +11  1019.1  -2.9  754  291           
12 28.03.20 220 (ЮЗ) 6{11}  10 км    8/0 верхняя 
[Ci]
+14.7 -5.7 24 +14  1015.9  -3  751  288           
15 28.03.20 200 (Ю) 10 км    9/0 верхняя 
[Ci]
+11.9 -3.7 33 +12  1013.3  -2.7  749  290    +15.1       
18 28.03.20 тихо ()   10 км    6/0 средняя, верхняя 
[Ac trans|Ci fib]
+1.9 -2.8 71 +2  1013.2  -0.6  749  300           
21 28.03.20 тихо ()   10 км    6/0 средняя, верхняя 
[Ac trans|Ci fib]
-2 -4.8 81 -2  1012.9  -0.5  749  304           
00 29.03.20 тихо ()   10 км    8/0 средняя, верхняя 
[Ac trans|Ci fib]
-2.2 -4.4 85 -2  1012.1  -0.8  748  304           
03 29.03.20 тихо ()   10 км    9/0 средняя, верхняя 
[Ac trans|Ci fib]
-2.1 -3.6 89 -2  1011.1  -1  747  304  -2.7        замёрзшая 
06 29.03.20 360 (С) 10 км    10/0 средняя, верхняя 
[Ac trans|Ci fib]
+3.7 -4 57 +2  1011.3  0.6  748  298           
09 29.03.20 360 (С) 4{10}  10 км    10/0 средняя 
[Ac trans]
+3.1 -4.8 56 +1  1012.3  0.8  748  299           
12 29.03.20 010 (С) 4{11}  10 км  слаб. ливневой снег  10/10 330 м кучево-дожд. 
[Cb calv]
+0.6 -4 71 -2  1012.7  0.3  749  301           
15 29.03.20 030 (СВ) 10 км  в посл. час ливневой снег  10/8 420 м кучево-дожд., средняя 
[Cb calv|Ac trans]
-1.2 -5.2 74 -2  1013  0.2  749  304    +4.5  0.4     
18 29.03.20 360 (С) 10 км  {ливн. осадки}  10/4 600 м средняя 
[Sc|Ac trans]
-0.8 -11.9 43 -3  1013.6  0.6  749  304           
21 29.03.20 350 (С) 10 км    9/0 средняя 
[Ac trans]
-1.6 -14.1 38 -4  1013.2  -0.4  749  305           
00 30.03.20 350 (С) 10 км    8/0 средняя 
[Ac trans]
-2.3 -12 47 -4  1013.2  -0.2  749  305           
03 30.03.20 350 (С) 10 км    10/0 средняя 
[Ac und]
-2.6 -12.5 46 -4  1013.4  0.2  749  306  -2.6        замёрзшая 
06 30.03.20 020 (С) 10 км    10/0 средняя 
[Ac und]
-1.9 -13.5 41 -5  1014  0.8  749  305  -2.8         
09 30.03.20 030 (СВ) 5{10}  10 км    10/3 600 м средняя, верхняя 
[Sc|Ac trans|Ci fib]
-0.1 -16.4 28 -3  1015.1  1.2  750  304           
12 30.03.20 040 (СВ) 7-10{11}  10 км    9/4 600 м средняя 
[Sc|Ac trans]
+0.6 -17.1 25 -3  1015.5  0.4  751  303           
15 30.03.20 060 (СВ) 4{10}  10 км    10/4 600 м средняя 
[Sc|Ac trans]
-0.5 -14.9 33 -3  1016  0.4  751  304    +1.6       
Время (UTC), дата Ветер
(°,м/с) 
Видим.   Явления Облачность Т
(°С)
Тd
(°С)
f(%) Тe
(°С)
Pmin
(гПа)
dP
(гПа)
Po
(мм)
O2
(г/м3)
Тmin Tmax R s Состояние
почвы

Для получения пояснительной информации подведите курсор к названию столбца.

ПОГОДА в Череповеце - архив

Всё, что Вы хотите узнать о погоде в Череповеце - удобно и подробно!

Выберите нужную дату (начиная с 1 января 2019* года) и нажмите кнопку "Найти".
Будут отображены архивные сводки погоды по пункту Череповец, начиная с указанной даты.


Отображать данные в формате CSV (для использования в таблицах Excel)


Внимание! Наш архив погоды предназначен исключительно для личного некоммерческого использования в познавательных целях. Если Вам необходимы официальные справки о состоянии погоды (для производственных, юридических, коммерческих и т.п. целей), обращайтесь в органы Росгидромета.

*Примечание: данная дата относится к архиву по метеостанциям СССР (Россия, СНГ, Балтия).
Архив по метеостанциям Зарубежной Европы и Азии (кроме Китая) хранится 10 дней, по другим регионам земного шара (Китай, Африка, Америка, Австралия, Океания) - 1 день.

Череповец - район местоположения метеостанции


Название, широта, долгота, высота метеостанции:
Череповец 59.2°ш. 38°д. 114 м над ур. моря [Российская Федерация]

Дополнительная информация

В oтличие oт бoльшинства пoгoдных сайтoв мы публикуем пoдрoбную метеoинфoрмацию в детальнoм прoфессиoнальнoм фoрмате.

Характеристики температуры и влажнoсти вoздуха измеряются на высoте 2 м в тени вдали oт зданий и деревьев.
Скoрoсть ветра измеряется на высoте 10 м (на урoвне рoста челoвека скoрoсть ветра ниже в 1.5-2 раза). Если метеoстанция нахoдится в гoрoде или в лесу, тo скoрoсть ветра занижена на 2-4 м/с пo сравнению с oткрытым местoм. Скoрoсть ветра над акватoриями крупных рек и oзёр, а также на вершинах хoлмoв на 2-5 м/с выше, чем в oбычных услoвиях.
Атмoсфернoе давление в разных тoчках местнoсти мoжет значительнo oтличаться oт давления на метеoстанции, в зависимoсти oт услoвий рельефа (при пoдъёме на 10 м давление пoнижается примернo на 1 мм рт.ст.).